Flag for Netherlands Weather past 2 weeks in 's-Hertogenbosch, Netherlands

Now
48 °F

Fog.


Feels Like: 46 °F
Forecast: 48 / 68 °F
Wind: 6 mph from Southwest

Location: Volkel

Current Time: Jul 30, 2015 at 6:47:39 AM

Latest Report: Jul 30, 2015 at 5:58 AM


Visibility: 5 mi

Pressure: 29.92 "Hg

Humidity: 100%

Dew point: 48 °F

Location of 's-HertogenboschLocation

Historic Weather in 's-Hertogenbosch — Graph

°F

's-Hertogenbosch temperature yesterday

Maximum temperature yesterday: 64 °F (at 4:25 PM)
Minimum temperature yesterday: 50 °F (at 11:55 PM)
Average temperature yesterday: 57 °F

Past Weeks' High & Low Weather Summary

 TemperatureHumidityPressure
High84 °F (Jul 17, 1:55 PM)100% (Jul 15, 4:59 AM)30.12 "Hg (Jul 15, 4:59 AM)
Low46 °F (Jul 26, 2:55 AM)38% (Jul 23, 4:25 PM)29.45 "Hg (Jul 25, 6:55 AM)
Average65 °F75%29.86 "Hg
* Reported Jul 15 4:25 AM — Jul 30 4:59 AM, 's-Hertogenbosch, Weather by CustomWeather, © 2015

Note: Actual official high and low records may vary slightly from our data, if they occured in-between our weather recording intervals... More about our weather records

Advertising

's-Hertogenbosch weather history for previous 24 hours

 ConditionsComfort  
Time TempWeatherWind HumidityBarometerVisibility
4:59 AM
Thu, Jul 30
50 °FPassing clouds.6 mph94%29.92 "HgN/A
4:25 AM52 °FPassing clouds.5 mph94%29.92 "HgN/A
3:55 AM54 °FOvercast.6 mph88%29.92 "HgN/A
3:25 AM52 °FOvercast.6 mph94%29.92 "HgN/A
2:55 AM50 °FOvercast.5 mph94%29.92 "HgN/A
2:25 AM48 °FCool.6 mph100%29.92 "HgN/A
1:55 AM48 °FCool.8 mph94%29.92 "HgN/A
1:25 AM48 °FCool.7 mph100%29.89 "HgN/A
12:55 AM48 °FCool.6 mph94%29.89 "HgN/A
12:25 AM50 °FCool.3 mph94%29.89 "HgN/A
11:55 PM
Wed, Jul 29
50 °FCool.7 mph94%29.89 "HgN/A
11:25 PM52 °FClear.7 mph88%29.89 "HgN/A
10:55 PM52 °FCool.6 mph88%29.89 "HgN/A
10:25 PM55 °FCool.7 mph82%29.89 "HgN/A
9:55 PM57 °FPassing clouds.7 mph77%29.89 "HgN/A
9:25 PM57 °FPartly sunny.8 mph77%29.86 "HgN/A
8:55 PM59 °FMostly cloudy.9 mph72%29.86 "HgN/A
8:25 PM59 °FMostly cloudy.10 mph72%29.86 "HgN/A
7:55 PM59 °FBroken clouds.9 mph77%29.86 "HgN/A
7:25 PM57 °FRain showers. Mostly cloudy.13 mph77%29.83 "HgN/A
6:55 PM61 °FMostly cloudy.14 mph68%29.83 "HgN/A
6:25 PM61 °FBroken clouds.13 mph63%29.83 "HgN/A
5:55 PM63 °FPassing clouds.17 mph64%29.80 "HgN/A
5:25 PM63 °FMostly cloudy.16 mph56%29.80 "HgN/A
4:55 PM61 °FBroken clouds.17 mph59%29.80 "HgN/A
4:25 PM64 °FMild.20 mph56%29.77 "HgN/A
3:55 PM63 °FPassing clouds.17 mph59%29.77 "HgN/A
3:25 PM63 °FPassing clouds.18 mph59%29.77 "HgN/A
2:55 PM61 °FScattered clouds.13 mph72%29.77 "HgN/A
2:25 PM57 °FThunderstorms. Partly sunny.16 mph77%29.74 "HgN/A
1:59 PM59 °FThunderstorms. Broken clouds.10 mph77%29.74 "HgN/A
1:55 PM57 °FStrong thunderstorms. Broken clouds.12 mph77%29.74 "HgN/A
1:25 PM59 °FBroken clouds.14 mph77%29.74 "HgN/A
12:55 PM59 °FPassing clouds.14 mph82%29.74 "HgN/A
12:25 PM54 °FThunderstorms. Passing clouds.10 mph88%29.74 "HgN/A
11:55 AM54 °FLots of rain. Broken clouds.12 mph88%29.77 "HgN/A
11:25 AM54 °FThunderstorms. Broken clouds.12 mph82%29.74 "HgN/A
10:59 AM57 °FBroken clouds.12 mph72%29.74 "HgN/A
10:25 AM57 °FScattered clouds.10 mph88%29.74 "HgN/A
9:55 AM55 °FPartly sunny.10 mph88%29.74 "HgN/A
9:25 AM55 °FBroken clouds.16 mph82%29.74 "HgN/A
8:55 AM55 °FPartly sunny.10 mph94%29.74 "HgN/A
8:25 AM54 °FBroken clouds.10 mph94%29.74 "HgN/A
7:55 AM54 °FBroken clouds.14 mph88%29.74 "HgN/A
7:25 AM55 °FMostly cloudy.10 mph82%29.74 "HgN/A
7:00 AM54 °FBroken clouds.13 mph88%29.74 "HgN/A
6:25 AM54 °FOvercast.8 mph88%29.74 "HgN/A
Weather by CustomWeather, © 2015

See weather overviewHow to use our weather pages